Cedar City Regional Airport
KCDC : now visible

Airfield :











YOU CAN JOIN US ON...

 
LOGIN :

Register | Disclaimer

   EN    FR    IT 

 









Legend :    VFR   Marginal VFR   IFR   Intensive IFR   Very Intensive IFR
Visi :
Ceiling :
>= 8 km
>= 3000ft
5 to 8 km
1000 to 3000 ft
1500m to 5 km
500 to 1000 ft
800 to 1500m
200 to 500 ft
< 800m
< 200 ft
Symbols :   Thunderstorms  Fog  Heavy snow  Heavy precipitations  Wind > 20 kt






- Airport Elevation : 5622 ft
- IATA code : CDC


KCDC - Cedar City Regional

CURRENT METAR :
  • 221253Z AUTO 04006KT 10SM CLR 00/M06 A2983 RMK AO2 SLP071 T00001061

EXPIRED METARs :
  • 221153Z AUTO 18005KT 10SM CLR 04/M06 A2982 RMK AO2 SLP056 T00391061 10083 20006 53004
  • 221053Z AUTO 18005KT 10SM CLR 03/M07 A2982 RMK AO2 SLP054 T00331067

TAF KCDC
Valid from the 22 at 12:00 until the 23 at 12:00 UTC


221120Z 2212/2312 VRB05KT P6SM SKC
FM221800 30008KT P6SM SCT120
FM222200 21007KT P6SM SCT120
KZLC FIR / North America



MET'MAP, your aeronautical weather chart ! - Copyright ORBIFLY December 2007 - Disclaimer

ORBIFLY MET'MAP TEAM :

Programming & Development : Alexandra Zaïnal
Concept & original design : Baudouin d'Aumeries
Assistance for programming : Marc-Olivier Méhu
Technical & hardware support : Manuel Goepfert

Contact : metmap@orbifly.com




SOURCES & CREDITS :

   NOAA       Earth
Advisory